Location: Unspecified
(51.5147°N, 7.4673°E)
Time: 12:01:49
(UTC+01:00)

Vanguard 1 - Pass Details

Date: 19 February 2026
Orbit: 653 x 3818 km, 34.2° (Epoch: 5 March)

Event Time Altitude Azimuth Distance (km) Brightness Sun altitude
Rises 18:57:02 0° 259° (W) 5,606 16.1 -10.7°
Reaches altitude 10° 19:00:27 10° 252° (WSW) 4,975 15.1 -11.2°
Maximum altitude 19:14:28 41° 190° (S) 4,165 13.3 -13.4°
Drops below altitude 10° 19:34:23 10° 131° (SE) 6,914 13.9 -16.5°
Enters shadow 19:37:35 - 127° (SE) 7,456 14.0 -17.0°
